Вернуться в каталог

OPS 5111

NAVSTAR 1

АктивенНавигацияHEO
NORAD 10684·PAYLOAD·🇺🇸 United States

Запущен Feb 22, 1978 с Vandenberg Space Force Base

Loading…

Ближайшие Пролёты (ближайшие 24 часа)

TLE

СвежийSource: Space-Track

Эпоха: Sep 14, 2026, 06:45 UTC

1 10684U 78020A   26257.28147358 -.00000043  00000-0  00000-0 0  9994
2 10684  64.4155  49.6558 0081657 218.7084 140.7044  1.98072568338202

Отслеживайте OPS 5111 в реальном времени с AllMySat

Download on the App Store